This demonstration page uses our WeatherBlox Daily Observations layout. Learn more.

Left ArrowRight Arrow

39.12711, -84.51439

Hourly Observations for May 28, 2022

Temp ( °F °C ) Dew Point ( °F °C ) Humidity (%) Winds ( mph kmh ) Pressure ( in mb ) Visibility ( mi km ) Precip ( " mm )
12:18 am 00:18 Mostly Cloudy 61 16.1 60 15.6 97 97 SW 3 6 29.85 1011 10 16 0.00 0.00
12:53 am 00:53 Cloudy 62 16.7 61 16.1 96 96 Calm 29.85 1011 10 16 0.00 0.00
1:53 am 01:53 Cloudy 61 16.1 59 15 93 93 NW 12 19 29.87 1012 10 16 0.00 0.00
2:23 am 02:23 Cloudy 60 15.6 58 14.4 93 93 WNW 12 19 29.87 1011 9 14 0.00 0.00
2:53 am 02:53 Cloudy 59 15 57 13.9 93 93 WNW 7 11 29.87 1011 10 16 0.00 0.00
3:30 am 03:30 Cloudy 59 15 57 13.9 93 93 W 7 11 29.87 1011 10 16 0.00 0.00
3:53 am 03:53 Cloudy 59 15 57 13.9 93 93 W 7 11 29.87 1012 10 16 0.00 0.00
4:21 am 04:21 Cloudy 58 14.4 57 13.9 97 97 W 8 13 29.88 1012 9 14 0.00 0.00
4:53 am 04:53 Cloudy 58 14.4 56 13.3 93 93 W 9 15 29.89 1012 10 16 0.00 0.00
5:53 am 05:53 Cloudy 58 14.4 55 12.8 90 90 W 6 9 29.91 1013 10 16 0.00 0.00
6:53 am 06:53 Cloudy 58 14.4 53 11.7 84 84 W 6 9 29.93 1014 10 16 0.00 0.00
7:53 am 07:53 Cloudy 58 14.4 53 11.7 84 84 W 3 6 29.95 1014 10 16 0.00 0.00
8:53 am 08:53 Cloudy 59 15 54 12.2 83 83 NW 3 6 29.96 1015 10 16 0.00 0.00
9:53 am 09:53 Cloudy 60 15.6 55 12.8 84 84 W 5 7 29.97 1015 10 16 0.00 0.00
10:53 am 10:53 Cloudy 62 16.7 56 13.3 80 80 WSW 3 6 29.97 1015 10 16 0.00 0.00
11:53 am 11:53 Cloudy 64 17.8 58 14.4 81 81 SW 5 7 29.98 1015 10 16 0.00 0.00
12:53 pm 12:53 Cloudy 68 20 59 15 73 73 Calm 29.97 1015 10 16 0.00 0.00
1:53 pm 13:53 Cloudy 69 20.6 60 15.6 73 73 Calm 29.96 1015 10 16 0.00 0.00
2:41 pm 14:41 Cloudy 71 21.7 61 16.1 71 71 VRB 5 7 29.95 1014 10 16 0.00 0.00
2:53 pm 14:53 Cloudy 71 21.7 60 15.6 68 68 Calm 29.95 1014 10 16 0.00 0.00
3:53 pm 15:53 Cloudy 71 21.7 61 16.1 71 71 E 3 6 29.95 1014 10 16 0.00 0.00
4:53 pm 16:53 Cloudy 72 22.2 61 16.1 68 68 Calm 29.93 1014 10 16 0.00 0.00
5:53 pm 17:53 Mostly Cloudy 72 22.2 62 16.7 71 71 S 5 7 29.92 1013 10 16 0.00 0.00
6:53 pm 18:53 Mostly Sunny 71 21.7 62 16.7 73 73 SSE 5 7 29.91 1013 10 16 0.00 0.00
7:53 pm 19:53 Mostly Cloudy 71 21.7 63 17.2 76 76 Calm 29.92 1013 10 16 0.00 0.00
8:53 pm 20:53 Sunny 65 18.3 63 17.2 93 93 Calm 29.93 1014 10 16 0.00 0.00
9:53 pm 21:53 Partly Cloudy 63 17.2 62 16.7 97 97 SSW 3 6 29.93 1014 10 16 0.00 0.00
10:53 pm 22:53 Clear 65 18.3 62 16.7 90 90 S 8 13 29.95 1014 9 14 0.00 0.00
11:53 pm 23:53 Clear 61 16.1 60 15.6 97 97 VRB 3 6 29.96 1015 7 11 0.00 0.00

Powered by AerisWeather